Location: Carrières
(48.9495°N, 2.0407°E)
Time: 09:08:58
(UTC+00:00)

H-2A R/B - Pass Details

Date: 28 January 2023
Orbit: 732 x 836 km, 98.2° (Epoch: 21 March)

Event Time Altitude Azimuth Distance (km) Brightness Sun altitude
Rises 17:27:05 0° 195° (SSW) 3,230 5.8 -7.6°
Reaches altitude 10° 17:29:38 10° 206° (SSW) 2,325 5.2 -8.0°
Maximum altitude 17:34:06 29° 267° (W) 1,413 4.3 -8.7°
Drops below altitude 10° 17:38:42 10° 327° (NNW) 2,400 4.8 -9.4°
Sets 17:41:23 0° 338° (NNW) 3,352 5.4 -9.8°
